Time,TemperatureF,DewpointF,PressureIn,WindDirection,WindDirectionDegrees,WindSpeedMPH,WindSpeedGustMPH,Humidity,HourlyPrecipIn,Conditions,Clouds,dailyrainin,SoftwareType,DateUTC
2013-04-04 00:07:00,46.2,42.0,30.14,North,360,3.0,11.0,86,0.00,,,0.06,weatherlink.com 1.10,2013-04-04 05:07:00,
2013-04-04 00:22:00,46.0,42.0,30.14,North,355,3.0,7.0,87,0.00,,,0.06,weatherlink.com 1.10,2013-04-04 05:22:00,
2013-04-04 00:37:00,45.7,42.0,30.14,North,355,2.0,9.0,87,0.00,,,0.06,weatherlink.com 1.10,2013-04-04 05:37:00,
2013-04-04 00:52:00,45.6,42.0,30.13,NNW,344,1.0,7.0,88,0.00,,,0.06,weatherlink.com 1.10,2013-04-04 05:52:00,
2013-04-04 01:07:00,45.5,43.0,30.13,NNW,348,0.0,6.0,89,0.00,,,0.06,weatherlink.com 1.10,2013-04-04 06:07:00,
2013-04-04 01:22:00,45.3,42.0,30.13,North,355,7.0,9.0,88,0.00,,,0.06,weatherlink.com 1.10,2013-04-04 06:22:00,
2013-04-04 01:37:00,45.2,42.0,30.13,NNW,337,1.0,8.0,88,0.00,,,0.06,weatherlink.com 1.10,2013-04-04 06:37:00,
2013-04-04 01:52:00,45.1,42.0,30.12,North,360,3.0,11.0,87,0.00,,,0.06,weatherlink.com 1.10,2013-04-04 06:52:00,
2013-04-04 02:07:00,45.1,42.0,30.12,North,355,4.0,8.0,89,0.00,,,0.06,weatherlink.com 1.10,2013-04-04 07:07:00,
2013-04-04 02:22:00,44.8,42.0,30.12,North,360,4.0,6.0,88,0.00,,,0.06,weatherlink.com 1.10,2013-04-04 07:22:00,
2013-04-04 02:37:00,44.8,42.0,30.12,NNW,348,5.0,11.0,88,0.00,,,0.06,weatherlink.com 1.10,2013-04-04 07:37:00,
2013-04-04 02:52:00,44.8,42.0,30.12,North,355,6.0,8.0,88,0.00,,,0.06,weatherlink.com 1.10,2013-04-04 07:52:00,
2013-04-04 03:07:00,44.7,41.0,30.11,North,5,0.0,8.0,88,0.00,,,0.06,weatherlink.com 1.10,2013-04-04 08:07:00,
2013-04-04 03:22:00,44.7,41.0,30.11,North,355,3.0,7.0,88,0.00,,,0.00,weatherlink.com 1.10,2013-04-04 08:22:00,
2013-04-04 03:37:00,44.7,41.0,30.11,North,350,0.0,5.0,88,0.00,,,0.00,weatherlink.com 1.10,2013-04-04 08:37:00,
2013-04-04 03:52:00,44.7,41.0,30.11,NNW,348,2.0,7.0,88,0.00,,,0.00,weatherlink.com 1.10,2013-04-04 08:52:00,
2013-04-04 04:07:00,44.6,40.0,30.11,North,355,3.0,8.0,85,0.00,,,0.00,weatherlink.com 1.10,2013-04-04 09:07:00,
2013-04-04 04:22:00,44.5,40.0,30.11,NNE,31,3.0,11.0,84,0.00,,,0.00,weatherlink.com 1.10,2013-04-04 09:22:00,
2013-04-04 04:38:00,44.4,41.0,30.11,North,5,1.0,8.0,86,0.00,,,0.00,weatherlink.com 1.10,2013-04-04 09:38:00,
2013-04-04 04:53:00,44.2,40.0,30.11,NNW,342,4.0,11.0,84,0.00,,,0.00,weatherlink.com 1.10,2013-04-04 09:53:00,
2013-04-04 05:08:00,44.0,40.0,30.12,NNE,19,2.0,10.0,84,0.00,,,0.00,weatherlink.com 1.10,2013-04-04 10:08:00,
2013-04-04 05:38:00,43.7,39.0,30.12,NNE,13,7.0,13.0,84,0.00,,,0.00,weatherlink.com 1.10,2013-04-04 10:38:00,
2013-04-04 05:53:00,43.5,39.0,30.13,NNW,346,1.0,12.0,83,0.00,,,0.00,weatherlink.com 1.10,2013-04-04 10:53:00,
2013-04-04 06:08:00,43.5,39.0,30.13,North,360,4.0,6.0,83,0.00,,,0.00,weatherlink.com 1.10,2013-04-04 11:08:00,
2013-04-04 06:23:00,43.5,38.0,30.13,North,5,1.0,8.0,82,0.00,,,0.00,weatherlink.com 1.10,2013-04-04 11:23:00,
2013-04-04 06:38:00,43.5,39.0,30.13,NNW,348,3.0,8.0,83,0.00,,,0.00,weatherlink.com 1.10,2013-04-04 11:38:00,
2013-04-04 06:53:00,43.4,38.0,30.14,North,360,2.0,12.0,82,0.00,,,0.00,weatherlink.com 1.10,2013-04-04 11:53:00,
2013-04-04 07:08:00,43.4,38.0,30.15,NNW,342,1.0,5.0,82,0.00,,,0.00,weatherlink.com 1.10,2013-04-04 12:08:00,
2013-04-04 07:23:00,43.4,39.0,30.16,NNW,340,2.0,4.0,83,0.00,,,0.00,weatherlink.com 1.10,2013-04-04 12:23:00,
2013-04-04 07:38:00,43.5,39.0,30.17,NNW,342,1.0,4.0,84,0.00,,,0.00,weatherlink.com 1.10,2013-04-04 12:38:00,
2013-04-04 07:53:00,43.5,39.0,30.17,North,349,2.0,9.0,83,0.00,,,0.00,weatherlink.com 1.10,2013-04-04 12:53:00,
2013-04-04 08:08:00,43.4,38.0,30.18,NNW,331,1.0,8.0,82,0.00,,,0.00,weatherlink.com 1.10,2013-04-04 13:08:00,
2013-04-04 08:23:00,43.3,38.0,30.18,North,5,1.0,10.0,82,0.00,,,0.00,weatherlink.com 1.10,2013-04-04 13:23:00,
2013-04-04 08:38:00,43.3,38.0,30.19,North,9,5.0,8.0,82,0.00,,,0.00,weatherlink.com 1.10,2013-04-04 13:38:00,
2013-04-04 08:53:00,43.3,38.0,30.19,North,355,1.0,8.0,82,0.00,,,0.00,weatherlink.com 1.10,2013-04-04 13:53:00,
2013-04-04 09:08:00,43.4,38.0,30.20,North,11,0.0,7.0,81,0.00,,,0.00,weatherlink.com 1.10,2013-04-04 14:08:00,
2013-04-04 09:23:00,43.5,38.0,30.20,North,355,2.0,10.0,81,0.00,,,0.00,weatherlink.com 1.10,2013-04-04 14:23:00,
2013-04-04 09:38:00,43.7,39.0,30.21,NNW,346,6.0,9.0,82,0.00,,,0.00,weatherlink.com 1.10,2013-04-04 14:38:00,
2013-04-04 09:53:00,43.6,38.0,30.22,NNE,15,1.0,9.0,82,0.00,,,0.00,weatherlink.com 1.10,2013-04-04 14:53:00,
2013-04-04 10:08:00,43.8,39.0,30.22,NNE,14,0.0,7.0,82,0.00,,,0.00,weatherlink.com 1.10,2013-04-04 15:08:00,
2013-04-04 10:23:00,44.0,39.0,30.22,North,350,3.0,11.0,81,0.00,,,0.00,weatherlink.com 1.10,2013-04-04 15:23:00,
2013-04-04 10:38:00,44.4,39.0,30.22,North,5,6.0,9.0,82,0.00,,,0.00,weatherlink.com 1.10,2013-04-04 15:38:00,
2013-04-04 10:53:00,44.6,39.0,30.23,North,349,2.0,9.0,82,0.00,,,0.00,weatherlink.com 1.10,2013-04-04 15:53:00,
2013-04-04 11:08:00,45.0,40.0,30.23,NNW,348,5.0,10.0,81,0.00,,,0.00,weatherlink.com 1.10,2013-04-04 16:08:00,
2013-04-04 11:23:00,45.2,40.0,30.23,North,360,6.0,12.0,81,0.00,,,0.00,weatherlink.com 1.10,2013-04-04 16:23:00,
2013-04-04 11:38:00,45.8,40.0,30.23,NNE,21,4.0,10.0,80,0.00,,,0.00,weatherlink.com 1.10,2013-04-04 16:38:00,
2013-04-04 12:08:00,47.1,41.0,30.23,NNW,346,2.0,10.0,79,0.00,,,0.00,weatherlink.com 1.10,2013-04-04 17:08:00,
2013-04-04 12:24:00,47.9,41.0,30.23,North,355,0.0,8.0,77,0.01,,,0.01,weatherlink.com 1.10,2013-04-04 17:24:00,
2013-04-04 12:38:00,49.0,41.0,30.21,NNW,331,3.0,8.0,75,0.01,,,0.01,weatherlink.com 1.10,2013-04-04 17:38:00,
2013-04-04 12:54:00,50.1,42.0,30.21,NNW,333,5.0,10.0,74,0.01,,,0.01,weatherlink.com 1.10,2013-04-04 17:54:00,
2013-04-04 13:24:00,52.3,42.0,30.19,NNW,333,6.0,10.0,68,0.00,,,0.01,weatherlink.com 1.10,2013-04-04 18:24:00,
2013-04-04 13:39:00,53.7,43.0,30.18,North,360,2.0,10.0,68,0.00,,,0.01,weatherlink.com 1.10,2013-04-04 18:39:00,
2013-04-04 13:54:00,54.9,44.0,30.17,NE,35,4.0,9.0,67,0.00,,,0.01,weatherlink.com 1.10,2013-04-04 18:54:00,
2013-04-04 14:09:00,56.3,45.0,30.15,North,360,6.0,9.0,65,0.00,,,0.01,weatherlink.com 1.10,2013-04-04 19:09:00,
2013-04-04 14:24:00,57.3,46.0,30.14,WNW,303,3.0,10.0,66,0.00,,,0.01,weatherlink.com 1.10,2013-04-04 19:24:00,
2013-04-04 14:39:00,58.7,46.0,30.14,NNE,15,1.0,9.0,63,0.00,,,0.01,weatherlink.com 1.10,2013-04-04 19:39:00,
2013-04-04 15:09:00,58.8,45.0,30.12,NNW,331,2.0,13.0,61,0.00,,,0.01,weatherlink.com 1.10,2013-04-04 20:09:00,
2013-04-04 15:24:00,60.6,46.0,30.11,North,355,6.0,16.0,59,0.00,,,0.01,weatherlink.com 1.10,2013-04-04 20:24:00,
2013-04-04 15:39:00,61.2,46.0,30.11,NNW,335,10.0,13.0,58,0.00,,,0.01,weatherlink.com 1.10,2013-04-04 20:39:00,
2013-04-04 15:54:00,61.4,45.0,30.10,North,355,7.0,14.0,55,0.00,,,0.01,weatherlink.com 1.10,2013-04-04 20:54:00,
2013-04-04 16:09:00,62.0,46.0,30.09,North,5,8.0,12.0,56,0.00,,,0.01,weatherlink.com 1.10,2013-04-04 21:09:00,
2013-04-04 16:24:00,62.4,46.0,30.09,WNW,289,4.0,13.0,55,0.00,,,0.01,weatherlink.com 1.10,2013-04-04 21:24:00,
2013-04-04 16:39:00,62.4,45.0,30.09,NNE,12,5.0,12.0,53,0.00,,,0.01,weatherlink.com 1.10,2013-04-04 21:39:00,
2013-04-04 16:54:00,62.6,46.0,30.08,North,10,2.0,12.0,55,0.00,,,0.01,weatherlink.com 1.10,2013-04-04 21:54:00,
2013-04-04 17:09:00,62.1,45.0,30.08,North,5,2.0,12.0,53,0.00,,,0.01,weatherlink.com 1.10,2013-04-04 22:09:00,
2013-04-04 17:24:00,62.5,44.0,30.08,North,9,7.0,11.0,52,0.00,,,0.01,weatherlink.com 1.10,2013-04-04 22:24:00,
2013-04-04 17:39:00,62.0,44.0,30.08,NNE,29,6.0,13.0,53,0.00,,,0.01,weatherlink.com 1.10,2013-04-04 22:39:00,
2013-04-04 17:54:00,62.8,45.0,30.07,NNE,19,3.0,9.0,53,0.00,,,0.01,weatherlink.com 1.10,2013-04-04 22:54:00,
2013-04-04 18:09:00,63.2,46.0,30.08,NNE,15,6.0,9.0,54,0.00,,,0.01,weatherlink.com 1.10,2013-04-04 23:09:00,
2013-04-04 18:25:00,62.2,44.0,30.08,NNE,28,2.0,12.0,52,0.00,,,0.01,weatherlink.com 1.10,2013-04-04 23:25:00,
2013-04-04 18:40:00,62.4,45.0,30.08,NNE,33,4.0,9.0,54,0.00,,,0.01,weatherlink.com 1.10,2013-04-04 23:40:00,
2013-04-04 18:54:00,61.9,45.0,30.08,NE,34,4.0,8.0,55,0.00,,,0.01,weatherlink.com 1.10,2013-04-04 23:54:00,
2013-04-04 19:10:00,61.2,45.0,30.08,NE,35,5.0,7.0,55,0.00,,,0.01,weatherlink.com 1.10,2013-04-05 00:10:00,
2013-04-04 19:25:00,60.3,45.0,30.08,NE,49,2.0,6.0,58,0.00,,,0.01,weatherlink.com 1.10,2013-04-05 00:25:00,
2013-04-04 19:40:00,59.4,45.0,30.08,NE,46,0.0,5.0,60,0.00,,,0.01,weatherlink.com 1.10,2013-04-05 00:40:00,
2013-04-04 19:55:00,58.0,45.0,30.09,NE,46,0.0,4.0,62,0.00,,,0.01,weatherlink.com 1.10,2013-04-05 00:55:00,
2013-04-04 20:10:00,56.6,45.0,30.09,NE,46,1.0,5.0,65,0.00,,,0.01,weatherlink.com 1.10,2013-04-05 01:10:00,
2013-04-04 20:25:00,55.4,45.0,30.10,NE,46,0.0,2.0,67,0.00,,,0.01,weatherlink.com 1.10,2013-04-05 01:25:00,
2013-04-04 20:40:00,54.5,44.0,30.10,NE,46,0.0,2.0,69,0.00,,,0.01,weatherlink.com 1.10,2013-04-05 01:40:00,
2013-04-04 20:55:00,53.7,44.0,30.11,NE,46,1.0,3.0,70,0.00,,,0.01,weatherlink.com 1.10,2013-04-05 01:55:00,
2013-04-04 21:10:00,52.8,44.0,30.11,NE,46,0.0,1.0,71,0.00,,,0.01,weatherlink.com 1.10,2013-04-05 02:10:00,
2013-04-04 21:25:00,51.8,44.0,30.12,NE,46,0.0,0.0,74,0.00,,,0.01,weatherlink.com 1.10,2013-04-05 02:25:00,
2013-04-04 21:40:00,50.8,44.0,30.12,NE,46,0.0,0.0,76,0.00,,,0.01,weatherlink.com 1.10,2013-04-05 02:40:00,
2013-04-04 21:55:00,49.8,44.0,30.12,NE,46,0.0,0.0,79,0.00,,,0.01,weatherlink.com 1.10,2013-04-05 02:55:00,
2013-04-04 22:10:00,49.4,44.0,30.13,NE,46,0.0,0.0,80,0.00,,,0.01,weatherlink.com 1.10,2013-04-05 03:10:00,
2013-04-04 22:25:00,48.7,43.0,30.13,NE,46,0.0,0.0,80,0.00,,,0.01,weatherlink.com 1.10,2013-04-05 03:25:00,
2013-04-04 22:40:00,48.1,43.0,30.13,NE,46,0.0,0.0,81,0.00,,,0.01,weatherlink.com 1.10,2013-04-05 03:40:00,
2013-04-04 22:55:00,47.4,43.0,30.13,NE,46,0.0,0.0,83,0.00,,,0.01,weatherlink.com 1.10,2013-04-05 03:55:00,
2013-04-04 23:10:00,47.0,43.0,30.14,NE,46,0.0,0.0,85,0.00,,,0.01,weatherlink.com 1.10,2013-04-05 04:10:00,
2013-04-04 23:25:00,46.4,42.0,30.14,NE,46,0.0,0.0,85,0.00,,,0.01,weatherlink.com 1.10,2013-04-05 04:25:00,
2013-04-04 23:40:00,46.3,42.0,30.16,NE,46,0.0,0.0,85,0.00,,,0.01,weatherlink.com 1.10,2013-04-05 04:40:00,
2013-04-04 23:55:00,46.0,42.0,30.16,NE,46,0.0,0.0,85,0.00,,,0.01,weatherlink.com 1.10,2013-04-05 04:55:00,